When you browse on this site, cookies collect data to enhance your experience and personalize the content and advertising you see.
Visit our Privacy Policy to learn more. By continuing to use the site, you agree to this use of cookies and data.
  • In Spain
  • List of Countries
  • For 7 days
  • Water Temperature
  • Weather Map
  • Weather Widgets
  • user-avatar
    Login

    Hourly Weather Shusha

    Today, 10 April, Friday

    Time Temperature Precipitation Wind Pressure Humidity
    00:00 +1°C° 0 mm 0 mps 656 mmHg 90%
    01:00 +1°C° 0 mm 0 mps 656 mmHg 90%
    02:00 +1°C° 0 mm 0 mps 655 mmHg 90%
    03:00 0°C° 0 mm 0 mps 655 mmHg 90%
    04:00 0°C° 0 mm 0 mps 655 mmHg 89%
    05:00 +1°C° 0 mm 0 mps 655 mmHg 89%
    06:00 +1°C° 0 mm 0 mps 655 mmHg 89%
    07:00 +3°C° 0 mm 1 mps 655 mmHg 84%
    08:00 +4°C° 0 mm 1 mps 655 mmHg 79%
    09:00 +4°C° 0 mm 2 mps 655 mmHg 74%
    10:00 +5°C° 0.1 mm 2 mps 655 mmHg 75%
    11:00 +5°C° 0.1 mm 2 mps 655 mmHg 76%
    12:00 +5°C° 0.1 mm 2 mps 655 mmHg 78%
    13:00 +6°C° 0.2 mm 1 mps 654 mmHg 80%
    14:00 +6°C° 0.2 mm 1 mps 654 mmHg 82%
    15:00 +6°C° 0.2 mm 1 mps 653 mmHg 84%
    16:00 +6°C° 0 mm 1 mps 653 mmHg 86%
    17:00 +5°C° 0 mm 1 mps 653 mmHg 88%
    18:00 +5°C° 0 mm 1 mps 654 mmHg 90%
    19:00 +5°C° 0 mm 1 mps 654 mmHg 91%
    20:00 +5°C° 0 mm 1 mps 654 mmHg 91%
    21:00 +3°C° 0 mm 0 mps 654 mmHg 91%
    22:00 +4°C° 0.1 mm 1 mps 654 mmHg 91%
    23:00 +4°C° 0.1 mm 1 mps 654 mmHg 90%

    Tomorrow, 11 April, Saturday

    Time Temperature Precipitation Wind Pressure Humidity
    00:00 +4°C° 0.1 mm 1 mps 654 mmHg 90%
    01:00 +4°C° 0.1 mm 1 mps 654 mmHg 89%
    02:00 +2°C° 0.1 mm 0 mps 653 mmHg 88%
    03:00 +2°C° 0.1 mm 0 mps 653 mmHg 86%
    04:00 +2°C° 0 mm 0 mps 654 mmHg 85%
    05:00 +2°C° 0 mm 0 mps 654 mmHg 84%
    06:00 +2°C° 0 mm 0 mps 654 mmHg 83%
    07:00 +4°C° 0 mm 1 mps 654 mmHg 78%
    08:00 +5°C° 0 mm 1 mps 654 mmHg 74%
    09:00 +6°C° 0 mm 1 mps 654 mmHg 70%
    10:00 +6°C° 0 mm 2 mps 654 mmHg 70%
    11:00 +6°C° 0 mm 2 mps 655 mmHg 71%
    12:00 +7°C° 0 mm 2 mps 655 mmHg 71%
    13:00 +7°C° 0 mm 2 mps 654 mmHg 73%
    14:00 +7°C° 0 mm 2 mps 654 mmHg 75%
    15:00 +8°C° 0 mm 1 mps 654 mmHg 77%
    16:00 +7°C° 0.1 mm 1 mps 654 mmHg 80%
    17:00 +7°C° 0.1 mm 1 mps 654 mmHg 82%
    18:00 +6°C° 0.1 mm 0 mps 654 mmHg 84%
    19:00 +6°C° 0 mm 1 mps 655 mmHg 85%
    20:00 +6°C° 0 mm 1 mps 655 mmHg 86%
    21:00 +5°C° 0 mm 1 mps 655 mmHg 88%
    22:00 +6°C° 0 mm 1 mps 656 mmHg 87%
    23:00 +6°C° 0 mm 1 mps 656 mmHg 86%

    Day after tomorrow, 12 April, Sunday

    Time Temperature Precipitation Wind Pressure Humidity
    00:00 +6°C° 0 mm 1 mps 656 mmHg 85%
    01:00 +5°C° 0 mm 1 mps 656 mmHg 85%
    02:00 +5°C° 0 mm 1 mps 656 mmHg 86%
    03:00 +5°C° 0 mm 1 mps 656 mmHg 86%
    04:00 +5°C° 0 mm 1 mps 657 mmHg 86%
    05:00 +5°C° 0 mm 1 mps 657 mmHg 87%
    06:00 +4°C° 0 mm 0 mps 657 mmHg 87%
    07:00 +6°C° 0 mm 1 mps 658 mmHg 85%
    08:00 +6°C° 0 mm 1 mps 658 mmHg 83%
    09:00 +7°C° 0 mm 1 mps 658 mmHg 80%
    10:00 +7°C° 0.1 mm 1 mps 658 mmHg 80%
    11:00 +7°C° 0.1 mm 2 mps 658 mmHg 79%
    12:00 +7°C° 0.1 mm 2 mps 658 mmHg 78%
    13:00 +6°C° 0.4 mm 2 mps 657 mmHg 81%
    14:00 +6°C° 0.4 mm 2 mps 657 mmHg 84%
    15:00 +6°C° 0.4 mm 2 mps 656 mmHg 87%
    16:00 +5°C° 0.6 mm 2 mps 657 mmHg 87%
    17:00 +5°C° 0.6 mm 2 mps 657 mmHg 88%
    18:00 +4°C° 0.6 mm 2 mps 657 mmHg 89%
    19:00 +4°C° 0.3 mm 2 mps 658 mmHg 89%
    20:00 +5°C° 0.3 mm 1 mps 658 mmHg 89%
    21:00 +4°C° 0.3 mm 1 mps 659 mmHg 89%
    22:00 +4°C° 0.2 mm 1 mps 659 mmHg 91%
    23:00 +4°C° 0.2 mm 1 mps 660 mmHg 93%

    13 April, Monday

    Time Temperature Precipitation Wind Pressure Humidity
    00:00 +4°C° 0.2 mm 1 mps 660 mmHg 96%
    01:00 +3°C° 0.3 mm 1 mps 660 mmHg 96%
    02:00 +3°C° 0.3 mm 1 mps 660 mmHg 96%
    03:00 +3°C° 0.3 mm 1 mps 660 mmHg 96%
    04:00 +3°C° 0.4 mm 1 mps 661 mmHg 96%
    05:00 +3°C° 0.4 mm 1 mps 661 mmHg 96%
    06:00 +2°C° 0.4 mm 1 mps 661 mmHg 96%
    07:00 +1°C° 0.4 mm 2 mps 661 mmHg 96%
    08:00 +2°C° 0.4 mm 2 mps 662 mmHg 95%
    09:00 +2°C° 0.4 mm 2 mps 662 mmHg 95%
    10:00 +2°C° 0.2 mm 2 mps 662 mmHg 95%
    11:00 +2°C° 0.2 mm 2 mps 662 mmHg 94%
    12:00 +3°C° 0.2 mm 2 mps 661 mmHg 93%
    13:00 +3°C° 0.1 mm 2 mps 661 mmHg 93%
    14:00 +3°C° 0.1 mm 2 mps 661 mmHg 92%
    15:00 +3°C° 0.1 mm 2 mps 661 mmHg 92%
    16:00 +3°C° 0.1 mm 2 mps 661 mmHg 92%
    17:00 +4°C° 0.1 mm 1 mps 661 mmHg 93%
    18:00 +4°C° 0.1 mm 1 mps 661 mmHg 94%
    19:00 +4°C° 0 mm 1 mps 661 mmHg 95%
    20:00 +4°C° 0 mm 1 mps 661 mmHg 96%
    21:00 +2°C° 0 mm 0 mps 662 mmHg 96%
    22:00 +2°C° 0 mm 0 mps 662 mmHg 96%
    23:00 +2°C° 0 mm 0 mps 662 mmHg 95%

    14 April, Tuesday

    Time Temperature Precipitation Wind Pressure Humidity
    00:00 +2°C° 0 mm 0 mps 661 mmHg 95%
    01:00 +2°C° 0 mm 0 mps 661 mmHg 95%
    02:00 +1°C° 0 mm 0 mps 661 mmHg 94%
    03:00 +1°C° 0 mm 0 mps 660 mmHg 94%
    04:00 +1°C° 0 mm 0 mps 660 mmHg 94%
    05:00 +1°C° 0 mm 0 mps 660 mmHg 93%
    06:00 +1°C° 0 mm 0 mps 660 mmHg 92%
    07:00 +2°C° 0 mm 0 mps 661 mmHg 88%
    08:00 +5°C° 0 mm 1 mps 661 mmHg 85%
    09:00 +6°C° 0 mm 1 mps 661 mmHg 81%
    10:00 +5°C° 0 mm 2 mps 661 mmHg 81%
    11:00 +6°C° 0 mm 2 mps 660 mmHg 80%
    12:00 +7°C° 0 mm 2 mps 660 mmHg 80%
    13:00 +7°C° 0 mm 2 mps 660 mmHg 79%
    14:00 +7°C° 0 mm 2 mps 660 mmHg 79%
    15:00 +8°C° 0 mm 2 mps 659 mmHg 78%
    16:00 +8°C° 0 mm 1 mps 659 mmHg 81%
    17:00 +8°C° 0 mm 1 mps 659 mmHg 84%
    18:00 +7°C° 0 mm 1 mps 659 mmHg 86%
    19:00 +6°C° 0 mm 1 mps 659 mmHg 88%
    20:00 +6°C° 0 mm 1 mps 659 mmHg 89%
    21:00 +5°C° 0 mm 1 mps 659 mmHg 90%
    22:00 +5°C° 0 mm 1 mps 658 mmHg 88%
    23:00 +4°C° 0 mm 1 mps 658 mmHg 86%

    15 April, Wednesday

    Time Temperature Precipitation Wind Pressure Humidity
    00:00 +4°C° 0 mm 1 mps 658 mmHg 84%
    01:00 +4°C° 0 mm 1 mps 657 mmHg 81%
    02:00 +4°C° 0 mm 1 mps 657 mmHg 79%
    03:00 +4°C° 0 mm 1 mps 657 mmHg 77%
    04:00 +4°C° 0 mm 1 mps 657 mmHg 76%
    05:00 +5°C° 0 mm 1 mps 657 mmHg 75%
    06:00 +5°C° 0 mm 1 mps 657 mmHg 73%
    07:00 +7°C° 0 mm 1 mps 657 mmHg 69%
    08:00 +10°C° 0 mm 1 mps 657 mmHg 64%
    09:00 +12°C° 0 mm 1 mps 658 mmHg 59%
    10:00 +13°C° 0 mm 1 mps 658 mmHg 57%
    11:00 +14°C° 0 mm 2 mps 658 mmHg 56%
    12:00 +15°C° 0 mm 2 mps 658 mmHg 54%
    13:00 +15°C° 0.2 mm 2 mps 657 mmHg 55%
    14:00 +15°C° 0.2 mm 2 mps 657 mmHg 56%
    15:00 +16°C° 0.2 mm 2 mps 657 mmHg 57%
    16:00 +14°C° 0.2 mm 2 mps 656 mmHg 65%
    17:00 +13°C° 0.2 mm 1 mps 656 mmHg 72%
    18:00 +12°C° 0.2 mm 1 mps 655 mmHg 80%
    19:00 +11°C° 0 mm 1 mps 655 mmHg 78%
    20:00 +10°C° 0 mm 1 mps 655 mmHg 77%
    21:00 +9°C° 0 mm 1 mps 655 mmHg 75%
    22:00 +9°C° 0 mm 1 mps 655 mmHg 73%
    23:00 +9°C° 0 mm 1 mps 655 mmHg 70%
    Show more